Tracking 19817 objects as of 18-Aug-2019
HD Live streaming from Space Station
objects crossing your sky now

SSU 1

Track SSU 1 now!
10-day predictions
SSU 1 is classified as:


NORAD ID: 8835
Int'l Code: 1976-038C
Perigee: 497.9 km
Apogee: 1,438.2 km
Inclination: 63.3 °
Period: 104.3 minutes
Semi major axis: 7339 km
RCS: Unknown
Launch date: April 30, 1976
Source: United States (US)
Launch site: AIR FORCE WESTERN TEST RANGE (AFWTR)
aabbcc
Your satellite tracking list
Your tracking list is empty




NASA's NSSDC Master Catalog

Two Line Element Set (TLE):
1  8835U 76038C   19228.58420046 -.00000119  00000-0  69616-5 0  9994
2  8835  63.3281 296.4806 0640585 146.3902 217.9534 13.80831544 13863
Source of the keplerian elements: McCants